This is the latest recevied weather packets stored in our database for station/object SP6PWT-13. If no packets are shown the sender has not sent any weather packets the latest 1 day(s).
| Time | Temp. | Humidity | Pressure | Rain* | Wind** | Luminosity | Snow |
|---|---|---|---|---|---|---|---|
| 1777980596 | 24.44° C | 37% | 990.6 hPa | 0 mm | 1.34 m/s, 113° | 419 W/m² | - |
| 1777980296 | 25° C | 37% | 990.6 hPa | 0 mm | 3.13 m/s, 136° | 447 W/m² | - |
| 1777979995 | 25° C | 36% | 990.5 hPa | 0 mm | 1.34 m/s, 182° | 531 W/m² | - |
| 1777979685 | 24.44° C | 37% | 990.6 hPa | 0 mm | 0.45 m/s, 332° | 558 W/m² | - |
| 1777979384 | 24.44° C | 38% | 990.7 hPa | 0 mm | 3.13 m/s, 147° | 688 W/m² | - |
| 1777979073 | 24.44° C | 38% | 990.7 hPa | 0 mm | 2.24 m/s, 128° | 606 W/m² | - |
| 1777978772 | 24.44° C | 39% | 990.7 hPa | 0 mm | 1.79 m/s, 131° | 684 W/m² | - |
| 1777978472 | 25° C | 37% | 990.8 hPa | 0 mm | 0.89 m/s, 221° | 682 W/m² | - |
| 1777978160 | 25° C | 38% | 991 hPa | 0 mm | 0.45 m/s, 150° | 676 W/m² | - |
| 1777977860 | 25.56° C | 37% | 990.9 hPa | 0 mm | 0.45 m/s, 186° | 675 W/m² | - |
| 1777977559 | 23.89° C | 39% | 990.9 hPa | 0 mm | 0 m/s | 692 W/m² | - |
| 1777977249 | 24.44° C | 39% | 991.1 hPa | 0 mm | 0.89 m/s, 67° | 543 W/m² | - |
| 1777976949 | 24.44° C | 39% | 991.2 hPa | 0 mm | 0.45 m/s, 145° | 572 W/m² | - |
| 1777976647 | 24.44° C | 39% | 991.1 hPa | 0 mm | 0 m/s | 530 W/m² | - |
| 1777976291 | 23.89° C | 40% | 991.2 hPa | 0 mm | 0.45 m/s, 263° | 714 W/m² | - |
| 1777975990 | 23.89° C | 40% | 991.3 hPa | 0 mm | 0.45 m/s, 349° | 753 W/m² | - |
| 1777975690 | 23.33° C | 42% | 991.2 hPa | 0 mm | 0 m/s | 612 W/m² | - |
| 1777975388 | 23.33° C | 42% | 991.4 hPa | 0 mm | 0 m/s | 406 W/m² | - |
| 1777975088 | 23.89° C | 41% | 991.3 hPa | 0 mm | 0.45 m/s, 72° | 461 W/m² | - |
| 1777974777 | 22.78° C | 42% | 991.4 hPa | 0 mm | 0 m/s | 357 W/m² | - |
| 1777974477 | 22.78° C | 42% | 991.5 hPa | 0 mm | 0 m/s | 318 W/m² | - |
| 1777974176 | 22.78° C | 42% | 991.5 hPa | 0 mm | 0.89 m/s, 1° | 416 W/m² | - |
| 1777973875 | 22.22° C | 42% | 991.6 hPa | 0 mm | 0.89 m/s, 10° | 801 W/m² | - |
| 1777973564 | 22.22° C | 44% | 991.5 hPa | 0 mm | 0.89 m/s, 335° | 445 W/m² | - |
| 1777973264 | 22.78° C | 42% | 991.7 hPa | 0 mm | 0.45 m/s, 38° | 440 W/m² | - |
* Rain latest hour (hover to see other rain measurements)
** Current wind speed in m/s (hover to see current wind gust speed)